Hourly Data Report for November 13, 2016

All times are specified in Local Standard Time (LST). Add 1 hour to adjust for Daylight Saving Time where and when it is observed.

KITCHENER/WATERLOO
ONTARIO

43°27'39.000" N
80°22'43.000" W
321.60 m
6144239
71368
YKF

Download Data

Hourly Data (November 2016)
Hourly Data Report for November 13, 2016
Temp Definition
°C
Dew Point Temp Definition
°C
Rel Hum Definition
%
Wind Dir Definition
10's deg

Wind Spd Definition
km/h
Visibility Definition
km
Stn Press Definition
kPa
Hmdx Definition


Wind Chill Definition


Weather Definition


TIME
00:00 Legend Double Dagger 3.4 -2.3 66 24 18 16.1 98.17     LegendNANA
01:00 Legend Double Dagger 2.7 -2.0 71 27 17 16.1 98.20     LegendNANA
02:00 Legend Double Dagger 1.5 -2.3 76 24 13 16.1 98.18     LegendNANA
03:00 Legend Double Dagger 0.4 -2.3 82 24 15 16.1 98.15     LegendNANA
04:00 Legend Double Dagger 1.0 -2.2 79 24 15 16.1 98.11     LegendNANA
05:00 Legend Double Dagger 1.1 -1.9 80 24 17 16.1 98.09     LegendNANA
06:00 Legend Double Dagger 1.1 -1.8 81 24 17 16.1 98.06     LegendNANA
07:00 Legend Double Dagger 1.0 -1.7 82 25 15 16.1 98.08     LegendNANA
08:00 Legend Double Dagger 1.5 -0.9 84 24 15 16.1 98.11     LegendNANA
09:00 Legend Double Dagger 4.1 0.7 79 23 21 16.1 98.12     LegendNANA
10:00 Legend Double Dagger 6.2 2.0 74 26 22 16.1 98.06     LegendNANA
11:00 Legend Double Dagger 7.6 2.4 70 27 24 16.1 98.08     LegendNANA
12:00 Legend Double Dagger 9.1 2.6 64 23 22 16.1 97.98     LegendNANA
13:00 Legend Double Dagger 10.0 1.6 56 23 24 16.1 97.89     LegendNANA
14:00 Legend Double Dagger 10.9 0.4 48 24 26 16.1 97.78     LegendNANA
15:00 Legend Double Dagger 10.8 -0.6 45 23 30 16.1 97.73     LegendNANA
16:00 Legend Double Dagger 10.1 -0.1 49 22 26 16.1 97.71     LegendNANA
17:00 Legend Double Dagger 8.0 0.5 59 21 15 16.1 97.67     LegendNANA
18:00 Legend Double Dagger 7.0 2.1 71 21 17 16.1 97.68     LegendNANA
19:00 Legend Double Dagger 6.2 1.4 71 22 21 16.1 97.69     LegendNANA
20:00 Legend Double Dagger 5.4 -0.6 65 23 22 16.1 97.67     LegendNANA
21:00 Legend Double Dagger 4.9 -1.8 62 23 24 16.1 97.64     LegendNANA
22:00 Legend Double Dagger 4.6 -2.3 61 23 21 16.1 97.62     LegendNANA
23:00 Legend Double Dagger 4.5 -2.6 60 22 21 16.1 97.58     LegendNANA

Notes on Data Quality.

Legend

  • E = Estimated
  • M = Missing
  • NA = Not Available
  • ‡ = Partner data that is not subject to review by the National Climate Archives
Date modified: